Torna al catalogo

STARLINK-32048

AttivoComunicazioniVLEO
NORAD 60156·PAYLOAD·🇺🇸 United States

Lanciato Jun 27, 2024 da Cape Canaveral Space Force Station

Loading…

Prossimi Passaggi (prossime 24 ore)

TLE

AggiornatoSource: CelesTrak SupGP

Epoca: Sep 14, 2026, 20:37 UTC

1 60156C 24120X   26257.85951389 -.00013272  00000+0 -39229-3 0  2578
2 60156  53.1579 157.9658 0001362  96.4589 320.6490 15.34383319    19

Traccia STARLINK-32048 in tempo reale con AllMySat

Download on the App Store